Tracy, MN

8:59 PM CDT on April 30, 2017 (GMT -0500)
Tracy

Weather History for KTKC - April, 2014

Change the Weather History Date:

Sunday, April 6, 2014

  Actual Average (KMML) Record (KMML)
Temperature  
Mean Temperature 50 °F -  
Max Temperature 62 °F 52 °F 88 °F (1991)
Min Temperature 37 °F 30 °F 10 °F (1982)
Degree Days  
Heating Degree Days 16    
Moisture  
Dew Point 36 °F    
Average Humidity 61    
Maximum Humidity 81    
Minimum Humidity 33    
Precipitation  
Precipitation 0.00 in - - ()
Sea Level Pressure  
Sea Level Pressure 29.83 in    
Wind  
Wind Speed 11 mph (SW)    
Max Wind Speed 22 mph    
Max Gust Speed 30 mph    
Visibility 10 miles    
Events Thunderstorm    
Averages and records for this station are not official NWS values.
T = Trace of Precipitation, MM = Missing Value Source: NWS Daily Summary

Daily Weather History Graph

Daily Weather History Graph

Search for Another Location

Airport or City:

Trip Planner

Search our weather history database for the weather conditions in past years. The results will help you decide how hot, cold, wet, or windy it might be!

Date:

Astronomy

Apr. 06, 2014 Rise Set
Actual Time 6:54 AM CDT 7:55 PM CDT
Civil Twilight 6:25 AM CDT 8:25 PM CDT
Nautical Twilight 5:49 AM CDT 9:00 PM CDT
Astronomical Twilight 5:12 AM CDT 9:38 PM CDT
Moon 11:49 AM CDT (4/6) 1:59 AM CDT (4/6)
Length of Visible Light 14h 00m
Length of Day
13h 01m
Waxing Crescent, 44% of the Moon is Illuminated
Apr 6
Waxing Crescent
Apr 7
First Quarter
Apr 15
Full
Apr 22
Last Quarter
Apr 29
New

Hourly Weather History & Observations

Time (CDT) Temp. Windchill Dew Point Humidity Pressure Visibility Wind Dir Wind Speed Gust Speed Precip Events Conditions
12:13 AM 43.3 °F 35.2 °F 31.5 °F 63% 29.86 in 10.0 mi SSW 18.4 mph 25.3 mph N/A   Clear
12:32 AM 42.8 °F 34.3 °F 31.5 °F 64% 29.85 in 10.0 mi SSW 19.6 mph 26.5 mph N/A   Clear
12:52 AM 43.0 °F 34.8 °F 31.5 °F 64% 29.85 in 10.0 mi SSW 18.4 mph 25.3 mph N/A   Scattered Clouds
1:12 AM 43.0 °F 35.1 °F 31.5 °F 64% 29.84 in 10.0 mi SSW 17.3 mph 24.2 mph N/A   Scattered Clouds
1:33 AM 43.2 °F 35.3 °F 31.3 °F 63% 29.84 in 10.0 mi SSW 17.3 mph 24.2 mph N/A   Clear
1:52 AM 43.3 °F 35.8 °F 31.5 °F 63% 29.84 in 10.0 mi SSW 16.1 mph 25.3 mph N/A   Clear
2:13 AM 43.2 °F 34.5 °F 31.6 °F 64% 29.84 in 10.0 mi SSW 20.7 mph 24.2 mph N/A   Clear
2:33 AM 42.8 °F 33.8 °F 31.6 °F 65% 29.84 in 10.0 mi SSW 21.9 mph 26.5 mph N/A   Clear
2:52 AM 42.6 °F 33.8 °F 31.6 °F 65% 29.83 in 10.0 mi SSW 20.7 mph 29.9 mph N/A   Clear
3:12 AM 41.9 °F 33.4 °F 31.6 °F 67% 29.83 in 10.0 mi SSW 18.4 mph 25.3 mph N/A   Clear
3:32 AM 41.4 °F 32.1 °F 31.6 °F 68% 29.82 in 10.0 mi SSW 20.7 mph 28.8 mph N/A   Clear
3:52 AM 41.5 °F 32.4 °F 31.8 °F 68% 29.82 in 10.0 mi SSW 20.7 mph 28.8 mph N/A   Clear
4:12 AM 41.0 °F 31.9 °F 32.0 °F 70% 29.82 in 10.0 mi SSW 19.6 mph 25.3 mph N/A   Clear
4:32 AM 41.2 °F 31.6 °F 32.0 °F 70% 29.82 in 10.0 mi SW 21.9 mph 28.8 mph N/A   Clear
4:52 AM 40.6 °F 31.4 °F 32.0 °F 71% 29.81 in 10.0 mi SW 19.6 mph - N/A   Clear
5:12 AM 41.0 °F 31.9 °F 32.0 °F 70% 29.81 in 10.0 mi SW 19.6 mph 25.3 mph N/A   Clear
5:33 AM 40.6 °F 31.4 °F 32.0 °F 71% 29.81 in 10.0 mi SW 19.6 mph - N/A   Clear
5:52 AM 40.3 °F 31.3 °F 32.0 °F 72% 29.81 in 10.0 mi SW 18.4 mph - N/A   Clear
6:12 AM 40.1 °F 32.0 °F 32.0 °F 73% 29.82 in 10.0 mi SW 15.0 mph 23.0 mph N/A   Clear
6:32 AM 39.2 °F 31.6 °F 32.0 °F 75% 29.83 in 10.0 mi SW 12.7 mph - N/A   Clear
6:53 AM 38.7 °F 31.4 °F 32.0 °F 77% 29.84 in 7.0 mi SW 11.5 mph - N/A   Clear
7:12 AM 37.8 °F 29.4 °F 32.0 °F 80% 29.84 in 7.0 mi SW 13.8 mph - N/A   Clear
7:33 AM 37.6 °F 31.6 °F 32.0 °F 80% 29.85 in 7.0 mi WSW 8.1 mph - N/A   Clear
7:52 AM 37.9 °F - 32.0 °F 79% 29.86 in 7.0 mi Calm Calm - N/A   Clear
8:12 AM 39.4 °F - 32.7 °F 77% 29.86 in 7.0 mi Calm Calm - N/A   Clear
8:32 AM 41.2 °F - 33.1 °F 73% 29.87 in 7.0 mi Calm Calm - N/A   Clear
8:52 AM 43.0 °F 38.2 °F 34.7 °F 73% 29.87 in 7.0 mi WSW 8.1 mph - N/A   Clear
9:13 AM 44.6 °F 40.7 °F 35.6 °F 71% 29.87 in 10.0 mi SW 6.9 mph - N/A   Clear
9:32 AM 46.0 °F 43.9 °F 36.1 °F 68% 29.86 in 10.0 mi WSW 4.6 mph - N/A   Clear
9:53 AM 47.5 °F - 37.0 °F 67% 29.86 in 10.0 mi WSW 8.1 mph - N/A   Clear
10:12 AM 49.1 °F - 38.5 °F 67% 29.86 in 10.0 mi Calm Calm - N/A   Clear
10:33 AM 50.5 °F - 39.0 °F 65% 29.86 in 10.0 mi WSW 3.5 mph - N/A   Clear
10:52 AM 51.8 °F - 39.6 °F 63% 29.86 in 10.0 mi Calm Calm - N/A   Clear
11:12 AM 53.1 °F - 40.1 °F 61% 29.87 in 10.0 mi Calm Calm - N/A   Clear
11:33 AM 53.6 °F - 40.5 °F 61% 29.86 in 10.0 mi Calm Calm - N/A   Clear
11:52 AM 54.3 °F - 39.7 °F 58% 29.86 in 10.0 mi Calm Calm - N/A   Clear
12:12 PM 55.8 °F - 40.8 °F 57% 29.85 in 10.0 mi WSW 6.9 mph - N/A   Clear
12:33 PM 56.8 °F - 40.8 °F 55% 29.85 in 10.0 mi Calm Calm - N/A   Clear
12:53 PM 57.2 °F - 39.0 °F 51% 29.84 in 10.0 mi Calm Calm - N/A   Clear
1:12 PM 58.3 °F - 39.2 °F 49% 29.84 in 10.0 mi Calm Calm - N/A   Clear
1:32 PM 59.0 °F - 38.7 °F 47% 29.83 in 10.0 mi Calm Calm - N/A   Clear
1:52 PM 60.1 °F - 39.4 °F 46% 29.83 in 10.0 mi Calm Calm - N/A   Clear
2:13 PM 60.4 °F - 36.9 °F 42% 29.83 in 10.0 mi Calm Calm - N/A   Clear
2:33 PM 60.8 °F - 37.0 °F 41% 29.82 in 10.0 mi Calm Calm - N/A   Clear
2:53 PM 60.8 °F - 37.6 °F 42% 29.82 in 10.0 mi Calm Calm - N/A   Clear
3:12 PM 61.3 °F - 34.9 °F 37% 29.81 in 10.0 mi Calm Calm - N/A   Clear
3:32 PM 62.1 °F - 35.8 °F 38% 29.81 in 10.0 mi Calm Calm - N/A   Clear
3:53 PM 61.9 °F - 37.2 °F 40% 29.81 in 10.0 mi Calm Calm - N/A   Clear
4:12 PM 61.7 °F - 36.9 °F 40% 29.81 in 10.0 mi Calm Calm - N/A   Clear
4:33 PM 61.3 °F - 35.2 °F 38% 29.81 in 10.0 mi Calm Calm - N/A   Clear
4:52 PM 61.9 °F - 34.9 °F 36% 29.81 in 10.0 mi Calm Calm - N/A   Clear
5:12 PM 61.7 °F - 32.5 °F 33% 29.81 in 10.0 mi Calm Calm - N/A   Clear
5:33 PM 61.5 °F - 33.4 °F 35% 29.81 in 10.0 mi Calm Calm - N/A Thunderstorm Clear
5:53 PM 61.7 °F - 33.8 °F 35% 29.81 in 10.0 mi Calm Calm - N/A   Clear
6:13 PM 61.5 °F - 32.4 °F 33% 29.81 in 10.0 mi Calm Calm - N/A   Clear
6:33 PM 60.8 °F - 34.2 °F 37% 29.80 in 10.0 mi Calm Calm - N/A Thunderstorm Clear
6:53 PM 60.1 °F - 36.7 °F 42% 29.79 in 10.0 mi Calm Calm - N/A Thunderstorm Thunderstorm
7:12 PM 58.3 °F - 39.9 °F 50% 29.79 in 10.0 mi Calm Calm - N/A Thunderstorm Clear
7:32 PM 56.1 °F - 40.1 °F 55% 29.79 in 10.0 mi Calm Calm - N/A Thunderstorm Thunderstorm
7:52 PM 53.1 °F - 39.7 °F 61% 29.79 in 10.0 mi Calm Calm - N/A   Clear
8:13 PM 52.9 °F - 39.4 °F 60% 29.80 in 10.0 mi Calm Calm - N/A Thunderstorm Clear
8:32 PM 47.8 °F - 38.7 °F 70% 29.81 in 10.0 mi Calm Calm - N/A   Clear
8:53 PM 48.0 °F - 38.1 °F 69% 29.82 in 10.0 mi Calm Calm - N/A   Scattered Clouds
9:12 PM 49.8 °F - 39.6 °F 68% 29.83 in 10.0 mi Calm Calm - N/A   Mostly Cloudy
9:33 PM 50.4 °F - 39.9 °F 67% 29.83 in 10.0 mi Calm Calm - N/A   Overcast
9:52 PM 51.3 °F - 39.7 °F 65% 29.84 in 10.0 mi Calm Calm - N/A   Overcast
10:13 PM 50.7 °F - 40.5 °F 68% 29.84 in 10.0 mi Calm Calm - N/A   Overcast
10:32 PM 50.9 °F - 42.8 °F 74% 29.84 in 10.0 mi Calm Calm - N/A   Overcast
10:52 PM 50.4 °F - 43.0 °F 76% 29.85 in 10.0 mi South 10.4 mph - N/A   Overcast
11:13 PM 50.0 °F - 43.7 °F 79% 29.85 in 10.0 mi South 10.4 mph 16.1 mph N/A   Overcast
11:32 PM 49.3 °F - 43.7 °F 81% 29.84 in 10.0 mi South 13.8 mph 17.3 mph N/A   Overcast
11:52 PM 49.5 °F - 43.2 °F 79% 29.83 in 10.0 mi South 15.0 mph 20.7 mph N/A   Mostly Cloudy